Location: Krakow
(50.0830°N, 19.9170°E)
Time: 13:22:48
(UTC+01:00)

Explorer 7 - Visible Passes

Search period start: 05 March 2024 00:00
Search period end: 15 March 2024 00:00
Orbit: 470 x 631 km, 50.3° (Epoch: 04 March)

Date Brightness Start Highest point End Pass type
(mag) Time Alt. Az. Time Alt. Az. Time Alt. Az.
05 Mar 7.8 04:54:51 13° SW 04:57:41 35° SSE 05:01:05 10° E visible
06 Mar 9.5 03:14:13 10° ESE 03:14:13 10° ESE 03:14:22 10° ESE visible
06 Mar 7.4 04:49:53 18° SW 04:52:17 43° SSE 04:55:48 10° E visible
07 Mar 9.4 03:09:11 12° ESE 03:09:11 12° ESE 03:09:49 10° ESE visible
07 Mar 7.0 04:44:50 23° SW 04:46:53 53° SSE 04:50:29 10° E visible
08 Mar 9.4 03:04:03 14° ESE 03:04:03 14° ESE 03:04:51 10° E visible
08 Mar 6.7 04:39:42 27° SW 04:41:29 63° SSE 04:45:08 10° E visible
09 Mar 9.3 02:58:52 15° E 02:58:52 15° E 02:59:41 10° E visible
09 Mar 6.5 04:34:31 32° WSW 04:36:05 73° SSE 04:39:45 10° E visible
10 Mar 9.3 02:53:37 15° E 02:53:37 15° E 02:54:26 10° E visible
10 Mar 6.4 04:29:16 36° WSW 04:30:40 81° SSE 04:34:21 10° E visible
11 Mar 9.4 02:48:19 15° E 02:48:19 15° E 02:49:06 10° E visible
11 Mar 6.4 04:23:58 39° W 04:25:15 88° SSE 04:28:57 10° E visible
12 Mar 9.4 02:43:00 15° E 02:43:00 15° E 02:43:43 10° E visible
12 Mar 6.4 04:18:38 41° W 04:19:50 87° N 04:23:31 10° E visible
13 Mar 9.5 02:37:39 14° E 02:37:39 14° E 02:38:17 10° E visible
13 Mar 6.4 04:13:17 44° W 04:14:23 85° N 04:18:04 10° E visible
14 Mar 9.5 02:32:17 14° E 02:32:17 14° E 02:32:49 10° E visible
14 Mar 6.4 04:07:56 46° W 04:08:56 85° N 04:12:36 10° E visible
